Total_Precipitation_Accumulation
0.00 0.00 0.00 0.00 0.01 0.01 0.01 0.01 0.01 0.01 0.00 0.00 0.00 0.00 0.00 0.00 0.00 0.00 0.00 0.00 0.00 0.00 0.01 0.02 0.02 0.03 0.05 0.07 0.08 0.09 0.10 0.10 0.10 0.11 0.11 0.12 0.12 0.13 0.13 0.14 0.15 0.16 0.16
0.00 0.00 0.00 0.01 0.01 0.01 0.01 0.01 0.01 0.01 0.00 0.00 0.00 0.00 0.00 0.00 0.00 0.00 0.00 0.00 0.00 0.00 0.01 0.01 0.02 0.03 0.04 0.06 0.07 0.08 0.08 0.09 0.09 0.10 0.11 0.12 0.13 0.13 0.14 0.15 0.16 0.16 0.17
0.00 0.00 0.00 0.00 0.01 0.00 0.00 0.00 0.00 0.00 0.00 0.00 0.00 0.00 0.00 0.00 0.00 0.00 0.00 0.00 0.00 0.00 0.00 0.01 0.02 0.02 0.02 0.03 0.05 0.05 0.06 0.08 0.09 0.10 0.12 0.13 0.14 0.14 0.15 0.17 0.18 0.19 0.19
0.01 0.00 0.00 0.00 0.00 0.00 0.00 0.00 0.00 0.00 0.00 0.00 0.00 0.00 0.00 0.00 0.00 0.00 0.00 0.00 0.00 0.00 0.00 0.01 0.01 0.02 0.01 0.01 0.02 0.04 0.06 0.08 0.09 0.10 0.11 0.13 0.15 0.16 0.18 0.19 0.21 0.22 0.23
0.03 0.02 0.01 0.01 0.01 0.01 0.00 0.00 0.00 0.00 0.00 0.00 0.00 0.00 0.00 0.00 0.00 0.00 0.00 0.00 0.00 0.00 0.00 0.00 0.01 0.01 0.01 0.01 0.02 0.03 0.06 0.08 0.09 0.10 0.11 0.12 0.15 0.17 0.20 0.24 0.27 0.29 0.31
0.09 0.06 0.04 0.03 0.02 0.01 0.01 0.01 0.01 0.01 0.01 0.01 0.01 0.01 0.01 0.01 0.01 0.00 0.00 0.00 0.00 0.00 0.00 0.00 0.01 0.01 0.02 0.02 0.02 0.03 0.04 0.06 0.08 0.10 0.12 0.13 0.15 0.18 0.22 0.26 0.30 0.33 0.38
0.16 0.13 0.10 0.08 0.06 0.05 0.04 0.05 0.05 0.04 0.03 0.04 0.03 0.02 0.01 0.01 0.01 0.01 0.01 0.01 0.01 0.02 0.01 0.02 0.02 0.03 0.03 0.03 0.03 0.03 0.03 0.05 0.08 0.11 0.13 0.15 0.18 0.22 0.27 0.31 0.34 0.37 0.41
0.23 0.19 0.15 0.14 0.14 0.12 0.09 0.09 0.10 0.08 0.07 0.09 0.08 0.07 0.03 0.01 0.01 0.01 0.02 0.02 0.02 0.03 0.03 0.04 0.04 0.04 0.05 0.05 0.04 0.04 0.04 0.04 0.07 0.11 0.14 0.15 0.17 0.21 0.26 0.32 0.37 0.42 0.46
0.28 0.24 0.23 0.22 0.20 0.18 0.15 0.16 0.17 0.16 0.13 0.13 0.12 0.13 0.08 0.04 0.03 0.02 0.03 0.04 0.05 0.04 0.05 0.05 0.05 0.06 0.06 0.06 0.06 0.06 0.07 0.08 0.09 0.11 0.14 0.18 0.22 0.25 0.30 0.35 0.41 0.46 0.51
0.31 0.31 0.29 0.28 0.25 0.24 0.22 0.25 0.26 0.25 0.23 0.19 0.16 0.13 0.13 0.10 0.09 0.05 0.03 0.06 0.07 0.06 0.06 0.06 0.06 0.06 0.06 0.07 0.08 0.11 0.15 0.19 0.21 0.22 0.23 0.26 0.32 0.40 0.46 0.52 0.59 0.64 0.65
0.27 0.29 0.31 0.31 0.28 0.28 0.30 0.33 0.34 0.35 0.33 0.29 0.25 0.23 0.22 0.17 0.13 0.11 0.07 0.06 0.07 0.08 0.08 0.07 0.07 0.07 0.08 0.09 0.12 0.18 0.26 0.33 0.38 0.41 0.46 0.53 0.57 0.62 0.70 0.78 0.84 0.87 0.87
0.20 0.24 0.27 0.29 0.31 0.32 0.34 0.38 0.42 0.46 0.49 0.45 0.38 0.31 0.29 0.25 0.21 0.21 0.17 0.11 0.11 0.12 0.11 0.11 0.11 0.12 0.14 0.17 0.22 0.30 0.37 0.43 0.51 0.58 0.68 0.78 0.83 0.86 0.88 0.91 0.92 0.92 0.95
0.14 0.17 0.22 0.27 0.32 0.36 0.41 0.44 0.45 0.46 0.51 0.50 0.48 0.44 0.39 0.34 0.32 0.34 0.32 0.26 0.21 0.18 0.19 0.20 0.23 0.27 0.30 0.35 0.38 0.45 0.48 0.52 0.57 0.61 0.69 0.80 0.82 0.83 0.86 0.89 0.96 1.02 1.03
0.18 0.22 0.25 0.29 0.34 0.38 0.40 0.43 0.43 0.43 0.47 0.48 0.48 0.48 0.45 0.41 0.39 0.40 0.43 0.49 0.49 0.42 0.39 0.39 0.41 0.44 0.47 0.50 0.54 0.57 0.53 0.56 0.55 0.55 0.61 0.68 0.69 0.65 0.61 0.61 0.67 0.77 0.85
0.15 0.17 0.21 0.25 0.28 0.31 0.34 0.37 0.38 0.38 0.40 0.40 0.41 0.43 0.43 0.42 0.44 0.48 0.55 0.64 0.75 0.72 0.61 0.54 0.55 0.57 0.59 0.60 0.61 0.55 0.47 0.51 0.52 0.51 0.52 0.52 0.51 0.46 0.40 0.41 0.45 0.51 0.58
0.12 0.13 0.16 0.18 0.20 0.22 0.23 0.25 0.27 0.28 0.30 0.31 0.32 0.36 0.38 0.40 0.43 0.48 0.55 0.63 0.74 0.85 0.80 0.63 0.55 0.53 0.53 0.51 0.53 0.46 0.41 0.45 0.43 0.42 0.42 0.42 0.41 0.37 0.33 0.32 0.34 0.36 0.39
0.09 0.10 0.12 0.13 0.14 0.14 0.14 0.16 0.17 0.18 0.20 0.22 0.24 0.28 0.32 0.34 0.39 0.43 0.48 0.54 0.60 0.68 0.72 0.63 0.53 0.48 0.47 0.43 0.41 0.35 0.32 0.31 0.29 0.33 0.34 0.33 0.32 0.30 0.29 0.28 0.28 0.30 0.32
0.07 0.07 0.08 0.08 0.08 0.08 0.08 0.09 0.11 0.12 0.14 0.16 0.19 0.21 0.24 0.26 0.30 0.35 0.40 0.44 0.48 0.50 0.54 0.53 0.44 0.39 0.35 0.31 0.26 0.23 0.20 0.19 0.18 0.21 0.22 0.21 0.22 0.22 0.20 0.20 0.23 0.26 0.28
0.05 0.05 0.05 0.05 0.05 0.05 0.06 0.07 0.08 0.10 0.11 0.13 0.15 0.18 0.21 0.25 0.30 0.33 0.34 0.34 0.34 0.34 0.35 0.36 0.29 0.24 0.22 0.19 0.17 0.14 0.10 0.09 0.08 0.08 0.09 0.09 0.10 0.12 0.15 0.17 0.19 0.20 0.21
0.05 0.05 0.05 0.05 0.05 0.06 0.06 0.07 0.09 0.11 0.14 0.18 0.21 0.25 0.28 0.30 0.31 0.30 0.29 0.28 0.28 0.27 0.25 0.27 0.28 0.25 0.20 0.14 0.12 0.09 0.06 0.05 0.04 0.04 0.05 0.05 0.06 0.08 0.09 0.09 0.08 0.08 0.07
0.06 0.06 0.07 0.08 0.10 0.12 0.15 0.17 0.18 0.22 0.28 0.33 0.36 0.36 0.36 0.35 0.33 0.29 0.27 0.26 0.24 0.24 0.29 0.33 0.32 0.24 0.15 0.09 0.06 0.05 0.06 0.06 0.05 0.05 0.06 0.04 0.04 0.03 0.02 0.02 0.02 0.02 0.04
0.09 0.10 0.11 0.15 0.20 0.25 0.34 0.32 0.28 0.31 0.35 0.35 0.33 0.30 0.27 0.25 0.21 0.20 0.19 0.19 0.23 0.30 0.39 0.41 0.33 0.20 0.09 0.05 0.05 0.08 0.13 0.20 0.16 0.06 0.07 0.03 0.02 0.02 0.01 0.01 0.02 0.04 0.07
0.22 0.23 0.28 0.32 0.37 0.43 0.47 0.40 0.35 0.29 0.28 0.26 0.23 0.20 0.16 0.14 0.13 0.11 0.10 0.15 0.20 0.26 0.26 0.23 0.16 0.09 0.07 0.08 0.16 0.27 0.25 0.25 0.15 0.04 0.05 0.05 0.02 0.03 0.02 0.02 0.03 0.05 0.06
0.43 0.49 0.53 0.56 0.56 0.54 0.47 0.37 0.29 0.23 0.20 0.17 0.14 0.11 0.09 0.08 0.07 0.09 0.15 0.21 0.14 0.08 0.06 0.05 0.06 0.08 0.09 0.11 0.19 0.28 0.24 0.17 0.07 0.03 0.06 0.10 0.05 0.03 0.02 0.02 0.02 0.04 0.05
0.58 0.58 0.56 0.52 0.47 0.41 0.32 0.22 0.15 0.12 0.10 0.08 0.05 0.04 0.05 0.05 0.06 0.18 0.26 0.21 0.08 0.02 0.01 0.04 0.07 0.07 0.06 0.06 0.07 0.19 0.27 0.28 0.16 0.03 0.03 0.08 0.06 0.05 0.03 0.01 0.01 0.03 0.06
0.54 0.47 0.40 0.32 0.25 0.19 0.13 0.08 0.06 0.04 0.03 0.02 0.02 0.02 0.03 0.04 0.13 0.24 0.19 0.13 0.05 0.03 0.06 0.04 0.02 0.00 0.00 0.00 0.03 0.14 0.41 0.65 0.43 0.19 0.04 0.16 0.16 0.18 0.24 0.04 0.02 0.05 0.07